Terminal Aerodrome Forecast
Issued by NWS Blacksburg, VA

Home | Current Version | Previous Version | Text Only | Print | Product List | Glossary On
Versions: 1 2 3 4 5 6 7 8 9 10 11 12 13 14 15 16 17 18 19 20 21 22 23 24 25 26 27 28 29 30 31 32 33
000
FTUS41 KRNK 292323
TAFDAN
TAF
KDAN 292323Z 3000/3024 00000KT P6SM OVC035
     FM300300 07003KT P6SM SCT025
     FM300600 08003KT 4SM BR OVC015
     FM300800 VRB03KT 2SM BR VCSH OVC012
     FM301200 VRB03KT 4SM BR OVC018
     FM301500 22005KT 6SM BR BKN025
     FM301800 20007KT P6SM SCT045
      AMD NOT SKED=

USA.gov is the U.S. government's official web portal to all federal, state and local government web resources and services.